| time (UTC) | temp C | wind direction | speed KPH | gust KPH | rain 1hr cm | rain 24hr cm | rain mn cm | humidity % | barometer mb |
| 20260507014729 | 0 | 212 | 4.8 | 4.8 | 0.00 | 0.00 | 0.00 | 94 | 1012.2 |
| 20260507012728 | 0 | 253 | 3.2 | 3.2 | 0.00 | 0.00 | 0.00 | 94 | 1012.2 |
| 20260507010728 | 0 | 4 | 1.6 | 3.2 | 0.00 | 0.00 | 0.00 | 94 | 1012.1 |
| 20260507004728 | 0 | 5 | 3.2 | 4.8 | 0.00 | 0.00 | 0.00 | 94 | 1012.0 |
| 20260507002728 | 0 | 34 | 4.8 | 6.4 | 0.00 | 0.00 | 0.00 | 94 | 1011.9 |
| 20260507000728 | 0 | 57 | 3.2 | 4.8 | 0.00 | 0.00 | 0.00 | 93 | 1011.7 |
| 20260506234729 | 0 | 33 | 3.2 | 4.8 | 0.00 | 0.00 | 0.00 | 93 | 1011.7 |
| 20260506232728 | 0 | 14 | 3.2 | 4.8 | 0.00 | 0.00 | 0.00 | 93 | 1011.6 |
| 20260506230730 | 0 | 25 | 6.4 | 8.0 | 0.00 | 0.00 | 0.00 | 92 | 1011.4 |
| 20260506224727 | 0 | 49 | 6.4 | 8.0 | 0.00 | 0.00 | 0.00 | 91 | 1011.3 |
| 20260506222728 | 0 | 353 | 3.2 | 4.8 | 0.00 | 0.00 | 0.00 | 89 | 1011.3 |
| 20260506220728 | 1 | 235 | 3.2 | 4.8 | 0.00 | 0.00 | 0.00 | 85 | 1011.2 |
| 20260506212728 | 1 | 304 | 3.2 | 4.8 | 0.00 | 0.00 | 0.00 | 82 | 1010.9 |
| 20260506210728 | 1 | 308 | 4.8 | 6.4 | 0.00 | 0.00 | 0.00 | 82 | 1010.8 |
| 20260506204727 | 1 | 324 | 9.7 | 19.3 | 0.00 | 0.00 | 0.00 | 78 | 1010.8 |
| 20260506202728 | 1 | 265 | 6.4 | 9.7 | 0.00 | 0.00 | 0.00 | 72 | 1010.6 |
| 20260506200728 | 1 | 242 | 3.2 | 4.8 | 0.00 | 0.00 | 0.00 | 75 | 1010.3 |
| 20260506194727 | 2 | 240 | 6.4 | 8.0 | 0.00 | 0.00 | 0.00 | 67 | 1010.1 |
| 20260506192727 | 1 | 242 | 6.4 | 9.7 | 0.00 | 0.00 | 0.00 | 69 | 1010.1 |
| 20260506190727 | 1 | 46 | 3.2 | 4.8 | 0.00 | 0.00 | 0.00 | 76 | 1009.9 |
| 20260506184727 | 2 | 25 | 4.8 | 6.4 | 0.00 | 0.00 | 0.00 | 65 | 1009.7 |
| 20260506180727 | 3 | 134 | 4.8 | 6.4 | 0.00 | 0.00 | 0.00 | 62 | 1009.4 |
| 20260506174727 | 3 | 98 | 6.4 | 9.7 | 0.00 | 0.00 | 0.00 | 58 | 1009.2 |
| 20260506172726 | 4 | 115 | 6.4 | 9.7 | 0.00 | 0.00 | 0.00 | 58 | 1009.1 |
| 20260506170727 | 4 | 45 | 8.0 | 12.9 | 0.00 | 0.00 | 0.00 | 58 | 1009.0 |
| 20260506164726 | 4 | 41 | 11.3 | 16.1 | 0.00 | 0.00 | 0.00 | 58 | 1008.9 |
| 20260506162727 | 4 | 31 | 9.7 | 14.5 | 0.00 | 0.00 | 0.00 | 53 | 1008.8 |
| 20260506160726 | 4 | 17 | 17.7 | 24.1 | 0.00 | 0.00 | 0.00 | 49 | 1008.7 |
| 20260506154727 | 5 | 306 | 9.7 | 14.5 | 0.00 | 0.00 | 0.00 | 46 | 1008.5 |
| 20260506152727 | 5 | 268 | 11.3 | 14.5 | 0.00 | 0.00 | 0.00 | 47 | 1008.4 |
| 20260506150726 | 5 | 222 | 8.0 | 11.3 | 0.00 | 0.00 | 0.00 | 47 | 1008.3 |
| 20260506144725 | 5 | 231 | 6.4 | 11.3 | 0.00 | 0.00 | 0.00 | 48 | 1008.3 |
| 20260506142726 | 4 | 273 | 4.8 | 11.3 | 0.00 | 0.00 | 0.00 | 57 | 1008.3 |
| 20260506140726 | 3 | 314 | 9.7 | 17.7 | 0.00 | 0.00 | 0.00 | 62 | 1008.3 |
| 20260506134726 | 3 | 308 | 12.9 | 17.7 | 0.00 | 0.00 | 0.00 | 61 | 1008.3 |
| 20260506132726 | 4 | 307 | 8.0 | 16.1 | 0.00 | 0.00 | 0.00 | 52 | 1008.1 |
| 20260506124725 | 4 | 3 | 3.2 | 9.7 | 0.00 | 0.00 | 0.00 | 53 | 1007.8 |
| 20260506122725 | 3 | 330 | 9.7 | 16.1 | 0.00 | 0.00 | 0.00 | 59 | 1007.8 |
| 20260506120726 | 3 | 261 | 4.8 | 9.7 | 0.00 | 0.00 | 0.00 | 58 | 1007.7 |
| 20260506114726 | 2 | 274 | 11.3 | 17.7 | 0.00 | 0.00 | 0.00 | 66 | 1007.6 |
| 20260506112726 | 2 | 288 | 19.3 | 27.4 | 0.00 | 0.00 | 0.00 | 72 | 1007.4 |
| 20260506110725 | 3 | 357 | 8.0 | 11.3 | 0.00 | 0.00 | 0.00 | 50 | 1007.0 |
| 20260506104727 | 3 | 271 | 6.4 | 11.3 | 0.00 | 0.00 | 0.00 | 49 | 1006.8 |
| 20260506102727 | 3 | 306 | 6.4 | 12.9 | 0.00 | 0.00 | 0.00 | 54 | 1006.6 |
| 20260506100729 | 3 | 291 | 12.9 | 17.7 | 0.00 | 0.00 | 0.00 | 51 | 1006.5 |
| 20260506094728 | 3 | 284 | 11.3 | 19.3 | 0.00 | 0.00 | 0.00 | 47 | 1006.2 |
| 20260506092728 | 3 | 262 | 9.7 | 16.1 | 0.00 | 0.00 | 0.00 | 47 | 1006.0 |
| 20260506090727 | 3 | 284 | 9.7 | 19.3 | 0.00 | 0.00 | 0.00 | 50 | 1005.9 |
| 20260506084728 | 3 | 23 | 6.4 | 16.1 | 0.00 | 0.00 | 0.00 | 48 | 1005.8 |
| 20260506082728 | 2 | 273 | 9.7 | 14.5 | 0.00 | 0.00 | 0.00 | 52 | 1005.6 |
| 20260506080727 | 2 | 24 | 11.3 | 17.7 | 0.00 | 0.00 | 0.00 | 52 | 1005.4 |
| 20260506072729 | 3 | 20 | 8.0 | 19.3 | 0.00 | 0.00 | 0.00 | 53 | 1005.1 |
| 20260506070728 | 2 | 339 | 6.4 | 9.7 | 0.00 | 0.00 | 0.00 | 55 | 1005.1 |
| 20260506060727 | 1 | 352 | 4.8 | 9.7 | 0.00 | 0.00 | 0.00 | 67 | 1004.8 |
| 20260506050727 | 0 | 2 | 8.0 | 11.3 | 0.00 | 0.00 | 0.00 | 72 | 1004.5 |
| 20260506044727 | 1 | 351 | 8.0 | 14.5 | 0.00 | 0.00 | 0.00 | 69 | 1004.3 |
| 20260506042727 | 1 | 18 | 6.4 | 12.9 | 0.00 | 0.00 | 0.00 | 73 | 1004.2 |
| 20260506040727 | 1 | 22 | 6.4 | 8.0 | 0.00 | 0.00 | 0.00 | 75 | 1004.0 |
| 20260506034728 | 0 | 254 | 3.2 | 4.8 | 0.00 | 0.00 | 0.00 | 82 | 1003.9 |
| 20260506032727 | 0 | 51 | 1.6 | 3.2 | 0.00 | 0.00 | 0.00 | 86 | 1003.8 |
| 20260506030727 | -1 | 32 | 6.4 | 9.7 | 0.00 | 0.00 | 0.00 | 88 | 1003.6 |
| 20260506024727 | -1 | 45 | 6.4 | 9.7 | 0.00 | 0.00 | 0.00 | 87 | 1003.4 |
| 20260506022727 | -1 | 38 | 4.8 | 6.4 | 0.00 | 0.00 | 0.00 | 84 | 1003.2 |
| 20260506020726 | 0 | 20 | 4.8 | 4.8 | 0.00 | 0.00 | 0.00 | 82 | 1003.1 |